Wind_Speed
31 32 33 33 34 35 36 37 38 38 39 39 39 39 39 39 40 40 41 40 41 41 41 42 42 41 40 39 40 41 40 39 37 35 33 31 30 28
33 33 34 34 35 35 36 37 37 38 38 39 40 41 40 39 40 41 41 41 41 42 42 43 43 43 42 41 40 40 41 40 38 36 35 33 31 29
35 35 35 35 36 36 36 37 37 37 38 39 40 41 41 41 40 40 41 42 42 42 42 43 43 44 43 42 41 40 41 41 39 37 36 35 33 31
36 36 36 36 37 37 37 36 36 37 38 38 40 40 41 42 41 41 42 42 43 43 42 43 44 44 44 43 41 41 41 40 40 39 37 35 34 32
35 35 35 36 36 36 37 36 36 37 38 38 40 41 42 41 41 42 42 43 42 42 43 43 44 44 44 44 43 42 42 41 40 39 38 36 34 33
34 34 34 34 35 35 35 36 37 37 38 38 39 41 43 43 43 42 43 44 43 43 43 43 44 45 45 45 44 43 42 42 41 41 39 37 35 33
33 33 34 34 34 35 35 36 36 36 38 38 39 40 42 44 44 43 42 44 45 44 44 44 44 45 46 45 45 44 43 42 42 42 40 38 36 34
33 33 33 33 34 34 35 36 36 37 37 38 39 39 41 43 44 45 44 43 44 45 46 45 44 45 47 46 46 45 45 43 43 42 41 40 38 36
33 32 31 32 32 33 34 35 36 36 37 37 38 38 40 42 44 45 45 45 44 44 45 46 46 45 46 46 46 46 46 44 44 44 42 41 40 38
32 31 31 31 32 32 33 33 34 35 36 37 37 37 39 40 42 44 45 45 45 45 46 46 47 45 45 45 46 46 47 47 46 46 44 43 42 40
31 30 30 31 31 31 32 33 34 35 36 36 37 37 38 39 41 43 44 45 45 45 45 46 47 47 47 45 45 46 47 48 48 47 45 44 43 42
31 30 30 30 30 30 31 32 33 34 35 36 37 37 38 39 40 41 44 45 45 45 46 46 47 48 48 47 47 46 48 49 49 48 46 45 44 43
30 30 29 29 29 30 31 31 32 33 34 35 36 37 38 39 39 40 43 44 45 44 46 46 46 47 48 48 48 48 48 48 48 48 46 45 44 44
30 29 29 29 29 29 29 29 30 31 32 33 34 35 36 38 39 40 41 43 45 44 45 46 46 47 48 48 48 48 48 48 48 47 47 46 45 45
30 29 29 29 28 28 28 28 28 29 30 31 32 33 34 36 37 39 41 42 44 44 44 46 47 47 47 47 47 48 48 47 47 47 47 46 46 46
29 28 28 29 28 27 26 26 26 26 27 28 29 31 32 34 35 37 39 41 43 43 43 45 47 48 47 46 45 46 48 47 47 47 48 48 47 47
29 27 27 27 26 25 25 24 24 24 24 25 26 28 29 31 33 34 36 38 41 42 43 44 47 48 49 47 46 45 47 48 48 48 49 49 48 47
29 27 27 26 24 23 22 22 22 22 22 22 24 26 27 29 30 32 34 36 38 41 43 44 46 48 49 49 47 45 45 46 48 49 49 48 47 47
28 27 25 24 22 21 20 19 19 20 20 20 21 22 24 26 28 30 31 33 36 39 41 42 44 46 47 48 48 46 44 45 46 48 48 48 46 45
27 26 24 22 21 20 18 17 17 18 18 18 19 20 21 23 26 28 30 32 33 36 39 41 42 43 43 45 47 46 46 45 44 45 47 47 46 46
25 24 23 22 20 19 17 16 16 16 16 17 17 18 19 21 23 25 28 30 32 34 37 40 41 41 42 44 45 45 45 45 44 44 45 47 46 45
23 23 22 21 19 18 17 15 14 14 14 15 16 17 18 19 21 23 26 28 30 32 35 37 38 40 40 41 43 43 43 43 42 43 44 45 45 44
22 22 21 19 18 17 16 14 13 13 13 13 14 15 16 18 20 22 24 26 28 31 33 35 36 38 39 40 41 42 42 43 42 43 43 43 44 44
Wind_Direction
287 283 280 276 273 269 265 262 259 257 255 253 251 249 247 246 244 244 243 241 239 237 237 236 235 233 232 232 231 231 231 231 231 233 235 237 238 240
287 284 280 277 274 271 268 264 261 258 255 252 250 249 248 246 244 242 242 240 240 238 237 235 235 233 233 232 231 231 231 230 231 233 234 235 237 239
288 284 281 278 275 272 268 265 262 258 255 252 250 248 247 246 244 242 241 240 240 239 238 235 234 233 232 232 231 231 232 230 230 232 233 234 235 237
288 284 280 277 275 272 268 265 262 259 256 253 251 249 247 246 245 242 241 240 239 240 240 238 234 232 232 232 232 231 231 230 230 230 231 232 232 233
288 285 281 278 275 272 269 265 262 260 257 254 252 249 247 246 245 242 241 239 238 238 238 238 234 232 231 231 231 230 230 230 230 229 229 229 230 231
290 286 282 278 275 272 269 266 263 261 258 255 252 250 248 246 245 243 241 239 238 236 237 236 234 232 231 230 229 229 228 228 228 227 226 227 227 228
293 288 283 279 276 273 269 266 264 262 259 256 252 250 248 246 244 242 241 239 237 236 236 235 234 231 229 229 228 227 227 227 227 226 225 226 225 226
296 291 285 281 277 274 270 267 264 262 259 256 253 250 248 246 243 242 240 238 237 235 234 234 233 231 229 228 227 226 225 225 225 225 225 224 224 224
298 293 288 283 279 275 272 267 264 261 259 256 253 251 248 246 243 241 239 237 236 235 234 232 231 230 229 228 226 224 224 224 224 224 224 223 223 224
299 295 290 285 281 277 273 268 264 261 259 256 252 250 247 244 242 240 238 237 236 234 232 231 229 229 227 227 226 225 224 224 224 223 224 223 223 224
302 297 293 289 284 279 274 269 265 262 259 256 253 249 247 244 242 240 238 236 234 234 233 230 228 228 226 225 225 225 224 224 223 222 223 223 222 223
304 299 295 290 286 281 276 271 267 263 260 257 253 249 246 243 242 239 237 235 233 232 232 230 228 227 226 226 226 226 224 223 222 221 222 223 222 222
306 302 298 294 290 285 280 274 268 263 260 257 253 249 245 243 242 240 236 234 231 231 231 229 228 226 226 226 226 226 224 223 222 221 221 222 223 223
309 305 300 297 294 289 283 276 269 264 260 256 253 249 246 243 241 239 236 233 231 229 229 227 226 224 223 225 225 224 223 223 221 221 221 222 223 223
311 307 304 301 296 291 286 279 271 266 261 257 253 249 246 243 240 239 237 233 230 228 227 225 223 223 222 223 223 222 222 222 221 220 221 221 222 222
313 309 306 303 300 295 289 281 273 267 263 258 253 248 245 242 240 236 234 232 229 227 224 222 222 222 222 222 222 221 220 220 220 220 220 220 222 223
315 311 308 305 301 296 289 283 275 268 264 258 252 248 245 241 237 234 232 230 228 225 223 221 221 221 221 220 220 219 218 217 218 220 219 219 221 222
317 314 312 309 304 298 292 285 278 270 264 259 253 249 244 239 234 232 230 229 227 224 222 222 221 219 219 220 219 220 220 217 216 218 219 218 220 222
317 315 314 311 307 303 296 289 280 272 265 259 255 249 243 238 233 230 228 226 224 223 222 221 220 218 219 219 219 219 219 218 218 218 220 220 221 222
316 316 314 313 311 306 300 293 285 274 267 259 253 248 243 236 231 228 225 223 223 222 221 220 219 218 218 218 217 218 218 218 218 218 218 219 221 222
316 315 313 313 312 308 302 295 287 277 267 257 250 245 240 234 229 225 222 220 221 221 219 218 218 216 217 216 216 217 218 217 218 218 218 217 220 223
317 317 315 312 311 308 304 296 286 277 266 255 250 242 236 232 227 222 219 218 218 218 216 216 216 217 218 218 218 218 219 218 218 218 218 217 219 222
316 317 316 313 311 307 302 295 285 277 266 256 251 242 235 229 224 221 219 217 216 215 213 214 214 215 216 217 217 218 220 220 220 219 219 219 221 222
Height
5769 5768 5767 5766 5766 5766 5767 5769 5771 5773 5775 5778 5781 5784 5788 5791 5796 5800 5804 5809 5813 5818 5823 5828 5833 5838 5843 5848 5853 5859 5864 5869 5874 5878 5882 5886 5890 5893
5760 5759 5757 5756 5756 5756 5756 5757 5759 5761 5764 5767 5769 5772 5776 5781 5785 5790 5794 5798 5803 5808 5812 5818 5823 5829 5834 5840 5845 5850 5856 5861 5866 5871 5875 5880 5883 5887
5750 5748 5747 5745 5745 5745 5745 5746 5748 5750 5752 5755 5757 5761 5765 5769 5773 5778 5783 5787 5792 5797 5802 5808 5813 5819 5825 5830 5836 5841 5847 5853 5858 5863 5868 5872 5876 5880
5739 5737 5736 5734 5734 5733 5734 5735 5736 5738 5741 5744 5746 5750 5753 5757 5762 5767 5772 5776 5781 5787 5792 5797 5803 5809 5815 5821 5827 5833 5839 5844 5850 5855 5860 5865 5870 5874
5729 5726 5725 5723 5723 5722 5722 5723 5725 5727 5729 5732 5735 5738 5742 5746 5750 5755 5760 5765 5771 5776 5781 5787 5793 5799 5805 5811 5818 5824 5830 5836 5842 5847 5852 5858 5862 5867
5718 5716 5714 5712 5711 5711 5711 5712 5713 5715 5717 5720 5723 5726 5730 5734 5738 5743 5748 5754 5759 5765 5771 5776 5782 5788 5795 5802 5808 5814 5820 5827 5833 5839 5844 5850 5855 5860
5707 5705 5703 5702 5700 5700 5700 5700 5701 5703 5705 5707 5711 5714 5718 5722 5726 5730 5736 5742 5748 5753 5759 5765 5771 5778 5784 5791 5798 5804 5811 5817 5823 5830 5836 5842 5847 5852
5697 5694 5692 5691 5690 5689 5688 5689 5690 5691 5693 5695 5698 5702 5706 5709 5714 5718 5724 5730 5737 5742 5748 5754 5760 5767 5774 5781 5788 5794 5801 5808 5814 5821 5827 5833 5839 5845
5687 5684 5681 5680 5678 5678 5677 5677 5678 5679 5681 5683 5686 5689 5693 5697 5701 5707 5711 5717 5724 5730 5736 5743 5749 5756 5763 5770 5777 5784 5791 5798 5805 5811 5818 5825 5831 5837
5677 5674 5671 5669 5668 5666 5666 5666 5666 5667 5669 5671 5675 5677 5680 5684 5688 5694 5699 5705 5712 5718 5725 5732 5738 5745 5752 5759 5766 5773 5780 5788 5795 5802 5809 5816 5822 5828
5668 5664 5661 5659 5657 5656 5655 5655 5655 5655 5657 5659 5662 5665 5668 5672 5676 5681 5687 5694 5700 5707 5713 5720 5728 5734 5741 5748 5756 5763 5770 5777 5785 5792 5800 5807 5813 5820
5659 5655 5652 5649 5647 5645 5644 5643 5643 5644 5645 5647 5650 5653 5656 5660 5664 5669 5675 5682 5688 5695 5702 5709 5716 5723 5731 5738 5745 5752 5760 5767 5775 5783 5790 5797 5804 5811
5650 5646 5643 5640 5637 5635 5633 5632 5632 5632 5633 5635 5637 5640 5644 5648 5652 5657 5662 5669 5677 5684 5690 5697 5704 5712 5720 5728 5735 5742 5750 5757 5765 5773 5781 5788 5795 5802
5642 5638 5634 5631 5628 5625 5623 5621 5620 5620 5622 5623 5626 5629 5632 5636 5641 5645 5650 5657 5664 5671 5678 5685 5693 5701 5709 5717 5724 5732 5739 5747 5755 5763 5771 5778 5786 5793
5634 5630 5626 5622 5618 5615 5613 5611 5610 5610 5611 5613 5615 5618 5621 5625 5629 5634 5639 5645 5652 5659 5667 5674 5682 5690 5698 5706 5713 5721 5729 5737 5745 5753 5761 5769 5777 5784
5627 5622 5618 5613 5609 5606 5604 5602 5601 5601 5601 5603 5605 5608 5611 5614 5618 5623 5628 5634 5641 5649 5656 5663 5671 5679 5687 5695 5703 5711 5719 5727 5735 5743 5751 5759 5766 5774
5619 5615 5610 5606 5602 5598 5596 5594 5593 5592 5593 5594 5596 5598 5601 5604 5608 5613 5619 5624 5631 5639 5646 5653 5661 5669 5677 5685 5693 5701 5709 5717 5725 5733 5741 5749 5756 5764
5612 5608 5603 5599 5595 5591 5588 5586 5585 5585 5585 5586 5588 5590 5592 5596 5600 5605 5610 5615 5622 5629 5636 5643 5650 5658 5667 5675 5684 5692 5699 5707 5715 5723 5731 5739 5747 5754
5606 5601 5597 5592 5588 5585 5582 5580 5579 5578 5578 5579 5581 5582 5585 5588 5592 5596 5601 5607 5613 5620 5626 5634 5641 5649 5658 5666 5675 5683 5691 5698 5706 5714 5722 5730 5737 5745
5599 5595 5591 5587 5583 5580 5577 5575 5573 5573 5573 5573 5575 5576 5578 5581 5585 5589 5594 5600 5605 5611 5617 5625 5632 5640 5649 5658 5666 5674 5681 5689 5697 5704 5712 5720 5727 5734
5594 5589 5585 5582 5578 5575 5572 5570 5568 5568 5567 5568 5569 5571 5573 5576 5579 5583 5587 5592 5598 5603 5610 5617 5624 5632 5640 5648 5656 5664 5672 5680 5687 5695 5702 5710 5718 5725
5588 5584 5580 5577 5574 5571 5568 5566 5564 5563 5563 5563 5565 5566 5568 5571 5574 5578 5582 5587 5592 5597 5603 5610 5617 5625 5632 5640 5648 5656 5663 5671 5678 5685 5693 5701 5709 5717
5583 5580 5576 5572 5569 5566 5564 5562 5560 5559 5559 5559 5560 5562 5564 5566 5569 5572 5576 5581 5586 5592 5598 5604 5611 5618 5625 5632 5640 5647 5654 5662 5669 5677 5684 5692 5700 5707